AFL347 UAAA-UUEE

Flight info

Callsign AFL347
Flight time N/A
Altitude 40000
Route EKLAT Z370 TOMGO L147 AKB M199 MULTA M162 PODUT T750 OKSUD T787 OTKOL T784 LARNO T291 URIDU L158 DIMGI DIMGI3F
Aircraft A359/H-SDE2E3GHIJ3J4J5LM1ORWXY/LB1D1

Departure

Time 2026-04-25 04:04
Airport Almaty International Airport (UAAA)

Arrival

Time N/A
Airport Sheremetyevo International Airport (UUEE)
Time Latitude Longitude Altitude Speed Heading
2026-04-25 03:03 43.35051 77.01244 2235 ft 0 kts 245°
2026-04-25 03:48 43.35061 77.01272 2230 ft 4 kts 245°
2026-04-25 03:49 43.35072 77.01306 2228 ft 4 kts 242°
2026-04-25 03:49 43.35086 77.01337 2235 ft 4 kts 231°
2026-04-25 03:49 43.35104 77.01358 2235 ft 4 kts 181°
2026-04-25 03:49 43.35112 77.01358 2235 ft 4 kts 155°
2026-04-25 03:55 43.35104 77.01363 2235 ft 4 kts 155°
2026-04-25 03:55 43.35042 77.01401 2231 ft 15 kts 156°
2026-04-25 03:56 43.34946 77.01458 2235 ft 14 kts 156°
2026-04-25 03:56 43.34861 77.01505 2235 ft 11 kts 162°
2026-04-25 03:56 43.34818 77.01579 2235 ft 10 kts 102°
2026-04-25 03:56 43.34811 77.01687 2234 ft 13 kts 95°
2026-04-25 03:57 43.34806 77.01824 2235 ft 15 kts 92°
2026-04-25 03:57 43.34799 77.01983 2232 ft 18 kts 95°
2026-04-25 03:57 43.34789 77.02161 2235 ft 20 kts 94°
2026-04-25 03:57 43.34779 77.02362 2235 ft 22 kts 94°
2026-04-25 03:58 43.34772 77.02548 2235 ft 12 kts 81°
2026-04-25 03:58 43.34812 77.02670 2227 ft 18 kts 57°
2026-04-25 03:58 43.34902 77.02855 2229 ft 28 kts 56°
2026-04-25 03:58 43.35029 77.03108 2230 ft 35 kts 54°
2026-04-25 03:59 43.35180 77.03412 2233 ft 41 kts 56°
2026-04-25 03:59 43.35355 77.03763 2229 ft 48 kts 56°
2026-04-25 03:59 43.35543 77.04147 2226 ft 49 kts 56°
2026-04-25 03:59 43.35728 77.04527 2227 ft 48 kts 56°
2026-04-25 04:00 43.35917 77.04900 2221 ft 47 kts 55°
2026-04-25 04:00 43.36099 77.05272 2227 ft 46 kts 55°
2026-04-25 04:00 43.36264 77.05600 2233 ft 35 kts 56°
2026-04-25 04:00 43.36373 77.05820 2226 ft 27 kts 56°
2026-04-25 04:01 43.36460 77.05998 2225 ft 5 kts 56°
2026-04-25 04:01 43.36462 77.06001 2226 ft 2 kts 56°
2026-04-25 04:01 43.36482 77.06042 2224 ft 9 kts 56°
2026-04-25 04:01 43.36493 77.06126 2227 ft 7 kts 116°
2026-04-25 04:02 43.36459 77.06172 2235 ft 7 kts 145°
2026-04-25 04:02 43.36414 77.06196 2234 ft 7 kts 169°
2026-04-25 04:02 43.36357 77.06192 2236 ft 10 kts 190°
2026-04-25 04:02 43.36304 77.06141 2236 ft 6 kts 232°
2026-04-25 04:03 43.36296 77.06127 2236 ft 1 kts 233°
2026-04-25 04:03 43.36279 77.06095 2237 ft 19 kts 234°
2026-04-25 04:03 43.36051 77.05635 2239 ft 96 kts 236°
2026-04-25 04:03 43.35548 77.04614 2237 ft 159 kts 235°
2026-04-25 04:04 43.34855 77.03224 2610 ft 182 kts 236°
2026-04-25 04:04 43.34151 77.01798 3496 ft 180 kts 235°
2026-04-25 04:04 43.33394 77.00218 3782 ft 212 kts 237°
2026-04-25 04:04 43.32609 76.98453 4293 ft 227 kts 241°
2026-04-25 04:05 43.32191 76.96300 4828 ft 246 kts 274°
2026-04-25 04:05 43.32820 76.94100 5601 ft 254 kts 310°
2026-04-25 04:05 43.34203 76.92550 6436 ft 263 kts 326°
2026-04-25 04:05 43.35753 76.91123 7345 ft 269 kts 324°
2026-04-25 04:06 43.37303 76.89642 8373 ft 272 kts 322°
2026-04-25 04:06 43.38859 76.88109 9269 ft 280 kts 321°
2026-04-25 04:06 43.40443 76.86521 9796 ft 283 kts 321°
2026-04-25 04:06 43.42030 76.84914 10099 ft 283 kts 320°
2026-04-25 04:07 43.43593 76.83325 10288 ft 285 kts 320°
2026-04-25 04:07 43.45146 76.81664 10540 ft 294 kts 315°
2026-04-25 04:07 43.46359 76.79339 10897 ft 310 kts 292°
2026-04-25 04:07 43.47200 76.76519 11593 ft 322 kts 290°
2026-04-25 04:08 43.48031 76.73632 12435 ft 330 kts 291°
2026-04-25 04:08 43.48902 76.70646 13272 ft 338 kts 291°
2026-04-25 04:08 43.49736 76.67804 14088 ft 344 kts 291°
2026-04-25 04:08 43.50638 76.64737 14920 ft 348 kts 291°
2026-04-25 04:09 43.51553 76.61628 15783 ft 351 kts 291°
2026-04-25 04:09 43.52467 76.58521 16674 ft 354 kts 291°
2026-04-25 04:09 43.53400 76.55350 17537 ft 358 kts 291°
2026-04-25 04:09 43.54329 76.52183 18441 ft 361 kts 291°
2026-04-25 04:10 43.55266 76.48957 19192 ft 365 kts 291°
2026-04-25 04:10 43.56222 76.45664 19941 ft 370 kts 291°
2026-04-25 04:10 43.57182 76.42359 20731 ft 374 kts 291°
2026-04-25 04:10 43.58152 76.39014 21521 ft 378 kts 291°
2026-04-25 04:11 43.59934 76.32112 23038 ft 387 kts 281°
2026-04-25 04:11 43.60172 76.29660 23530 ft 390 kts 275°
2026-04-25 04:11 43.60415 76.24675 24425 ft 395 kts 274°
2026-04-25 04:12 43.60583 76.20876 25103 ft 398 kts 274°
2026-04-25 04:12 43.60758 76.17035 25783 ft 400 kts 274°
2026-04-25 04:12 43.60934 76.13191 26426 ft 404 kts 274°
2026-04-25 04:12 43.61055 76.10571 26821 ft 407 kts 274°
2026-04-25 04:13 43.61235 76.06664 27443 ft 411 kts 274°
2026-04-25 04:13 43.61414 76.02754 28093 ft 413 kts 274°
2026-04-25 04:13 43.61596 75.98780 28734 ft 416 kts 274°
2026-04-25 04:13 43.61776 75.94794 29339 ft 419 kts 273°
2026-04-25 04:14 43.61958 75.90748 29934 ft 423 kts 273°
2026-04-25 04:14 43.62140 75.86681 30461 ft 426 kts 273°
2026-04-25 04:14 43.62322 75.82576 30925 ft 429 kts 273°
2026-04-25 04:14 43.62503 75.78455 31397 ft 432 kts 273°
2026-04-25 04:15 43.62683 75.74300 31784 ft 436 kts 273°
2026-04-25 04:15 43.62866 75.70086 32219 ft 439 kts 273°
2026-04-25 04:15 43.63046 75.65866 32655 ft 442 kts 273°
2026-04-25 04:15 43.63227 75.61608 33057 ft 444 kts 272°
2026-04-25 04:16 43.63406 75.57364 33447 ft 447 kts 272°
2026-04-25 04:16 43.63583 75.53126 33828 ft 449 kts 272°
2026-04-25 04:16 43.63768 75.48810 34245 ft 450 kts 272°
2026-04-25 04:16 43.63945 75.44525 34698 ft 448 kts 272°
2026-04-25 04:17 43.64119 75.40197 35087 ft 448 kts 272°
2026-04-25 04:17 43.64288 75.35898 35461 ft 449 kts 272°
2026-04-25 04:17 43.64456 75.31615 35837 ft 448 kts 272°
2026-04-25 04:17 43.64623 75.27313 36229 ft 448 kts 272°
2026-04-25 04:18 43.64789 75.23013 36597 ft 448 kts 272°
2026-04-25 04:18 43.64955 75.18704 36967 ft 448 kts 272°
2026-04-25 04:18 43.65117 75.14430 37288 ft 449 kts 272°
2026-04-25 04:18 43.65280 75.10122 37632 ft 449 kts 271°
2026-04-25 04:19 43.65441 75.05823 37967 ft 449 kts 271°
2026-04-25 04:19 43.65600 75.01512 38306 ft 449 kts 271°
2026-04-25 04:19 43.65758 74.97205 38649 ft 448 kts 271°
2026-04-25 04:19 43.65913 74.92939 38942 ft 448 kts 271°
2026-04-25 04:20 43.66067 74.88645 39184 ft 448 kts 271°
2026-04-25 04:20 43.66219 74.84341 39408 ft 449 kts 271°
2026-04-25 04:20 43.66370 74.80034 39636 ft 449 kts 271°
2026-04-25 04:20 43.66520 74.75715 39856 ft 449 kts 271°
2026-04-25 04:21 43.66669 74.71389 40069 ft 450 kts 271°
2026-04-25 04:21 43.66960 74.62742 40134 ft 451 kts 271°
2026-04-25 04:22 43.67245 74.54149 40134 ft 450 kts 271°
2026-04-25 04:22 43.67523 74.45512 40123 ft 450 kts 271°
2026-04-25 04:23 43.67795 74.36865 40125 ft 450 kts 271°
2026-04-25 04:23 43.68060 74.28236 40120 ft 450 kts 271°
2026-04-25 04:24 43.68320 74.19584 40116 ft 450 kts 271°
2026-04-25 04:24 43.68587 74.10921 40117 ft 451 kts 271°
2026-04-25 04:25 43.68843 74.02280 40114 ft 451 kts 271°
2026-04-25 04:25 43.69094 73.93616 40112 ft 452 kts 271°
2026-04-25 04:26 43.69340 73.84915 40108 ft 452 kts 271°
2026-04-25 04:26 43.70333 73.76343 40118 ft 455 kts 285°
2026-04-25 04:27 43.73058 73.68492 40121 ft 461 kts 301°
2026-04-25 04:27 43.76806 73.61262 40116 ft 462 kts 303°
2026-04-25 04:28 43.80668 73.54144 40132 ft 462 kts 303°
2026-04-25 04:28 43.84519 73.47009 40116 ft 463 kts 303°
2026-04-25 04:29 43.88347 73.39840 40115 ft 463 kts 303°
2026-04-25 04:29 43.92169 73.32643 40116 ft 463 kts 303°
2026-04-25 04:30 43.95979 73.25447 40118 ft 463 kts 303°
2026-04-25 04:30 43.99761 73.18289 40118 ft 462 kts 303°
2026-04-25 04:31 44.03568 73.11067 40118 ft 462 kts 303°
2026-04-25 04:31 44.07369 73.03840 40118 ft 462 kts 303°
2026-04-25 04:32 44.11153 72.96627 40128 ft 462 kts 303°
2026-04-25 04:32 44.14910 72.89446 40119 ft 462 kts 303°
2026-04-25 04:33 44.18687 72.82210 40121 ft 462 kts 303°
2026-04-25 04:33 44.22464 72.74957 40121 ft 462 kts 303°
2026-04-25 04:34 44.26243 72.67681 40125 ft 462 kts 303°
2026-04-25 04:34 44.30002 72.60426 40125 ft 462 kts 303°
2026-04-25 04:35 44.33744 72.53202 40124 ft 462 kts 303°
2026-04-25 04:35 44.37499 72.45916 40124 ft 461 kts 303°
2026-04-25 04:36 44.41244 72.38628 40136 ft 462 kts 303°
2026-04-25 04:36 44.44989 72.31329 40124 ft 462 kts 303°
2026-04-25 04:37 44.48731 72.24019 40121 ft 462 kts 303°
2026-04-25 04:37 44.52486 72.16664 40120 ft 462 kts 303°
2026-04-25 04:38 44.56217 72.09338 40131 ft 463 kts 303°
2026-04-25 04:38 44.59957 72.01976 40117 ft 463 kts 303°
2026-04-25 04:39 44.63694 71.94599 40120 ft 463 kts 303°
2026-04-25 04:39 44.67297 71.87471 40119 ft 463 kts 303°
2026-04-25 04:40 44.71032 71.80062 40129 ft 463 kts 303°
2026-04-25 04:40 44.74733 71.72703 40123 ft 464 kts 303°
2026-04-25 04:41 44.78452 71.65288 40118 ft 464 kts 303°
2026-04-25 04:41 44.82174 71.57848 40120 ft 464 kts 303°
2026-04-25 04:42 44.85860 71.50460 40117 ft 464 kts 303°
2026-04-25 04:42 44.89570 71.43005 40117 ft 463 kts 303°
2026-04-25 04:43 44.93270 71.35552 40126 ft 464 kts 302°
2026-04-25 04:43 44.96969 71.28080 40130 ft 464 kts 302°
2026-04-25 04:44 45.00637 71.20652 40131 ft 464 kts 302°
2026-04-25 04:44 45.04318 71.13181 40116 ft 462 kts 302°
2026-04-25 04:45 45.07997 71.05691 40113 ft 462 kts 302°
2026-04-25 04:45 45.11656 70.98222 40113 ft 462 kts 302°
2026-04-25 04:46 45.15288 70.90790 40121 ft 462 kts 302°
2026-04-25 04:46 45.18936 70.83307 40110 ft 461 kts 302°
2026-04-25 04:47 45.22569 70.75834 40108 ft 460 kts 302°
2026-04-25 04:47 45.26206 70.68346 40107 ft 460 kts 302°
2026-04-25 04:48 45.29829 70.60883 40104 ft 460 kts 302°
2026-04-25 04:48 45.33464 70.53370 40105 ft 459 kts 302°
2026-04-25 04:49 45.37080 70.45877 40104 ft 459 kts 302°
2026-04-25 04:49 45.40676 70.38408 40102 ft 459 kts 302°
2026-04-25 04:50 45.44279 70.30904 40102 ft 459 kts 302°
2026-04-25 04:50 45.47873 70.23401 40102 ft 459 kts 302°
2026-04-25 04:51 45.51465 70.15879 40097 ft 459 kts 301°
2026-04-25 04:51 45.55055 70.08345 40094 ft 460 kts 301°
2026-04-25 04:52 45.58626 70.00827 40097 ft 460 kts 301°
2026-04-25 04:52 45.62219 69.93247 40096 ft 460 kts 301°
2026-04-25 04:53 45.65795 69.85681 40092 ft 459 kts 301°
2026-04-25 04:53 45.69366 69.78104 40088 ft 459 kts 301°
2026-04-25 04:54 45.72922 69.70538 40084 ft 459 kts 301°
2026-04-25 04:54 45.76461 69.62989 40090 ft 459 kts 301°
2026-04-25 04:55 45.80004 69.55414 40083 ft 457 kts 301°
2026-04-25 04:55 45.83538 69.47835 40083 ft 457 kts 301°
2026-04-25 04:56 45.87076 69.40228 40078 ft 457 kts 301°
2026-04-25 04:56 45.90598 69.32635 40073 ft 457 kts 301°
2026-04-25 04:57 45.94119 69.25023 40069 ft 457 kts 301°
2026-04-25 04:57 45.97606 69.17464 40064 ft 457 kts 301°
2026-04-25 04:58 46.01116 69.09835 40057 ft 456 kts 301°
2026-04-25 04:58 46.04612 69.02217 40055 ft 456 kts 301°
2026-04-25 04:59 46.08103 68.94559 40053 ft 456 kts 300°
2026-04-25 04:59 46.11566 68.86921 40038 ft 455 kts 300°
2026-04-25 05:00 46.15030 68.79265 40038 ft 455 kts 300°
2026-04-25 05:00 46.18470 68.71649 40040 ft 455 kts 300°
2026-04-25 05:01 46.21356 68.65244 40040 ft 455 kts 300°
2026-04-25 05:01 46.24804 68.57571 40029 ft 455 kts 300°
2026-04-25 05:02 46.28231 68.49925 40026 ft 455 kts 300°
2026-04-25 05:02 46.31672 68.42225 40012 ft 455 kts 300°
2026-04-25 05:03 46.35104 68.34525 40012 ft 455 kts 300°
2026-04-25 05:03 46.38542 68.26792 40003 ft 455 kts 299°
2026-04-25 05:04 46.41964 68.19070 40008 ft 455 kts 299°
2026-04-25 05:04 46.45384 68.11334 40000 ft 455 kts 299°
2026-04-25 05:05 46.48772 68.03647 39998 ft 455 kts 299°
2026-04-25 05:05 46.52181 67.95893 39988 ft 455 kts 299°
2026-04-25 05:06 46.55585 67.88129 39988 ft 455 kts 299°
2026-04-25 05:06 46.58922 67.80339 39977 ft 455 kts 298°
2026-04-25 05:07 46.62250 67.72482 39975 ft 455 kts 298°
2026-04-25 05:07 46.65586 67.64648 39988 ft 455 kts 298°
2026-04-25 05:08 46.68975 67.56896 39980 ft 456 kts 299°
2026-04-25 05:08 46.72399 67.49087 39976 ft 456 kts 299°
2026-04-25 05:09 46.75803 67.41273 39977 ft 456 kts 298°
2026-04-25 05:09 46.79187 67.33465 39976 ft 456 kts 298°
2026-04-25 05:10 46.82563 67.25651 39972 ft 455 kts 298°
2026-04-25 05:10 46.85938 67.17817 39974 ft 455 kts 298°
2026-04-25 05:11 46.89287 67.10022 39971 ft 455 kts 298°
2026-04-25 05:11 46.92587 67.02121 39974 ft 455 kts 297°
2026-04-25 05:12 46.97505 66.90223 39974 ft 455 kts 298°
2026-04-25 05:12 47.00836 66.82367 39974 ft 455 kts 298°
2026-04-25 05:13 47.04178 66.74488 39974 ft 455 kts 298°
2026-04-25 05:13 47.07511 66.66584 39968 ft 455 kts 297°
2026-04-25 05:14 47.10827 66.58689 39963 ft 455 kts 297°
2026-04-25 05:15 47.15804 66.46790 39964 ft 455 kts 297°
2026-04-25 05:15 47.19112 66.38853 39960 ft 455 kts 297°
2026-04-25 05:16 47.22392 66.30962 39955 ft 455 kts 297°
2026-04-25 05:16 47.25684 66.23018 39961 ft 455 kts 297°
2026-04-25 05:17 47.28972 66.15062 39953 ft 455 kts 297°
2026-04-25 05:17 47.32256 66.07091 39949 ft 455 kts 297°
2026-04-25 05:18 47.35529 65.99124 39944 ft 455 kts 297°
2026-04-25 05:18 47.38785 65.91176 39962 ft 455 kts 296°
2026-04-25 05:19 47.42084 65.83100 39930 ft 456 kts 296°
2026-04-25 05:19 47.45338 65.75085 39926 ft 456 kts 296°
2026-04-25 05:20 47.48576 65.67032 39921 ft 455 kts 296°
2026-04-25 05:20 47.51803 65.58990 39921 ft 455 kts 296°
2026-04-25 05:21 47.55040 65.50912 39927 ft 456 kts 296°
2026-04-25 05:21 47.58251 65.42878 39928 ft 457 kts 296°
2026-04-25 05:22 47.61490 65.34751 39928 ft 457 kts 296°
2026-04-25 05:22 47.64719 65.26625 39922 ft 458 kts 296°
2026-04-25 05:23 47.67933 65.18509 39935 ft 458 kts 296°
2026-04-25 05:23 47.71177 65.10294 39922 ft 461 kts 295°
2026-04-25 05:24 47.74438 65.01998 39918 ft 470 kts 296°
2026-04-25 05:24 47.77747 64.93573 39911 ft 470 kts 296°
2026-04-25 05:25 47.81010 64.85253 39908 ft 470 kts 295°
2026-04-25 05:25 47.84303 64.76845 39914 ft 470 kts 295°
2026-04-25 05:26 47.87591 64.68422 39902 ft 470 kts 295°
2026-04-25 05:26 47.90874 64.59982 39902 ft 470 kts 295°
2026-04-25 05:27 47.94149 64.51537 39891 ft 470 kts 295°
2026-04-25 05:27 47.97420 64.43074 39898 ft 470 kts 295°
2026-04-25 05:28 48.00676 64.34621 39887 ft 471 kts 295°
2026-04-25 05:28 48.03921 64.26172 39887 ft 471 kts 295°
2026-04-25 05:29 48.07174 64.17674 39886 ft 471 kts 295°
2026-04-25 05:29 48.10419 64.09172 39884 ft 471 kts 295°
2026-04-25 05:30 48.13661 64.00648 39880 ft 471 kts 295°
2026-04-25 05:30 48.16900 63.92105 39887 ft 471 kts 294°
2026-04-25 05:31 48.20130 63.83558 39881 ft 471 kts 294°
2026-04-25 05:31 48.23360 63.74986 39873 ft 471 kts 294°
2026-04-25 05:32 48.26577 63.66419 39882 ft 472 kts 294°
2026-04-25 05:32 48.29777 63.57870 39873 ft 473 kts 294°
2026-04-25 05:33 48.33000 63.49230 39874 ft 473 kts 294°
2026-04-25 05:33 48.36214 63.40590 39870 ft 473 kts 294°
2026-04-25 05:34 48.39425 63.31931 39864 ft 473 kts 294°
2026-04-25 05:34 48.42618 63.23332 39849 ft 473 kts 294°
2026-04-25 05:35 48.45857 63.14708 39858 ft 474 kts 294°
2026-04-25 05:35 48.49142 63.06091 39825 ft 475 kts 295°
2026-04-25 05:36 48.52490 62.97473 39817 ft 475 kts 295°
2026-04-25 05:36 48.55888 62.88933 39850 ft 476 kts 296°
2026-04-25 05:37 48.59360 62.80429 39799 ft 477 kts 296°